Regional Weather Roundup
Issued by NWS

Home | Current Version | Previous Version | Graphics & Text | Print | Product List | Glossary On
Versions: 1 2 3 4 5 6 7 8 9 10 11 12 13 14 15 16 17 18 19 20 21 22 23 24 25 26 27 28 29 30 31 32 33 34 35 36 37 38 39 40 41 42 43 44 45 46 47 48 49 50
000
ASUS45 KBOU 240107
RWRCO

WEATHER ROUNDUP FOR COLORADO
NATIONAL WEATHER SERVICE DENVER/BOULDER CO
700 PM MDT WED JUL 23 2014

NOTE: "FAIR" INDICATES FEW OR NO CLOUDS BELOW 12000 FEET WITH NO
SIGNIFICANT WEATHER AND/OR OBSTRUCTIONS TO VISIBILITY.

COZ001>005-013-030-031-240200-
...NORTHWEST COLORADO...

CITY           SKY/WX    TMP DP  RH WIND       PRES   REMARKS
CRAIG          MOSUNNY   87  40  19 SW6       30.21F
HAYDEN         MOSUNNY   88  39  18 SE12      30.26S
MEEKER         MOSUNNY   91  36  14 SW6       30.23F
MOUNT WERNER   NOT AVBL
STEAMBOAT SPGS MOSUNNY   80  42  26 SE14G20   30.30R
WALDEN         PTSUNNY   73  37  27 SE12G22   30.43R
$$

COZ006>008-011-240200-
...WEST CENTRAL VALLEYS...

CITY           SKY/WX    TMP DP  RH WIND       PRES   REMARKS
GRAND JUNCTION MOSUNNY   96  39  13 S10       30.09F
MONTROSE       PTSUNNY   90  40  17 SE7       30.21F
EAGLE          NOT AVBL
RIFLE          MOSUNNY   95  36  12 S18       30.14S
DELTA          PTSUNNY   95  36  12 CALM      30.15S
NUCLA          PTSUNNY   91  34  13 E8        30.23F
$$

COZ017>023-064>068-240200-
...SOUTHWEST COLORADO...

CITY           SKY/WX    TMP DP  RH WIND       PRES   REMARKS
DURANGO        SUNNY     89  40  17 S21G29    30.29S
CORTEZ         SUNNY     94  36  13 S9        30.21S
PAGOSA SPRINGS MOSUNNY   81  32  17 CALM      30.42R
TELLURIDE      PTSUNNY   73  43  33 E7        30.51S
WOLF CREEK PAS NOT AVBL
$$

COZ009-010-012-014-032>034-037-058>063-240200-
...CENTRAL COLORADO...

CITY           SKY/WX    TMP DP  RH WIND       PRES   REMARKS
ASPEN          LGT RAIN  69  46  43 SE15G32   30.48R
BUENA VISTA    CLOUDY    74  38  27 NW14      30.50R
COPPER MTN     LGT RAIN  54  41  62 N3G9      30.85F
BERTHOUD PASS  PTSUNNY   50  36  57 MISG      30.90S
COTTONWOOD PAS CLOUDY    68  37  32 CALM      30.67R
GUNNISON       CLOUDY    73  43  33 N7        30.47R
KREMMLING      PTSUNNY   81  36  19 SW7       30.41F
LEADVILLE      CLOUDY    61  43  51 NW9       30.67S
MONARCH PASS   CLOUDY    59  34  38 E21       30.90F
SALIDA         CLOUDY   N/A N/A N/A N18G24    30.49R
SUNLIGHT       TSTM      54  50  87 SE3       30.70R
WILKERSON PASS CLOUDY    54  37  54 NE8G18    30.81F
$$

COZ069>075-240200-
...SAN LUIS VALLEY/SANGRE DE CRISTO MOUNTAINS...

CITY           SKY/WX    TMP DP  RH WIND       PRES   REMARKS
ALAMOSA        CLOUDY    77  44  30 S16G22    30.43R THUNDER
LA VETA PASS   CLOUDY    59  46  63 SE8       30.67S
SAGUACHE       MOSUNNY   82  37  20 S12       30.43R
$$

COZ035-036-038>040-240200-
...NORTHERN COLORADO FRONT RANGE...

CITY           SKY/WX    TMP DP  RH WIND       PRES   REMARKS
DENVER INTL AP CLOUDY    81  44  27 S24G38    30.25F
DMNS CITY PARK   N/A     80  45  29 SW7G16    30.25F
AURORA         PTSUNNY   74  53  47 S16       30.29F
FRONT RANGE AP NOT AVBL
ERIE MUNI ARPT CLOUDY    83  42  23 S24G35    30.25F
BOULDER MUN AP CLOUDY    81  45  28 S15G24    30.26S
CENTENNIAL     CLOUDY    75  49  39 S8        30.32F
BROOMFIELD     PTSUNNY   81  45  28 S12G21    30.32S
FORT COLLINS   MOSUNNY   84  48  28 S20G26    30.20S
LONGMONT       MOSUNNY   84  44  24 S25G32    30.25S
$$

COZ041-046-047-076>085-087-088-240200-
...PIKES PEAK/PALMER DIVIDE AND SOUTHERN FOOTHILLS...

CITY           SKY/WX    TMP DP  RH WIND       PRES   REMARKS
COLO. SPRINGS  PTSUNNY   79  45  29 N14G24    30.36S
A. F. ACADEMY  PTSUNNY   76  44  32 N10       30.39F
ELLICOTT       PTSUNNY   86  48  26 S10       30.33S
FALCON         PTSUNNY   74  43  33 N12G23    30.43S
FORT CARSON    PTSUNNY   83  47  28 NW17G28   30.33R
LIMON          CLOUDY    84  57  39 S12       30.28S
MONUMENT HILL  CLOUDY    70  43  37 NW7       30.43F
TRINIDAD       MOSUNNY   80  49  33 SW13      30.30R
$$

COZ042>045-048>051-090-091-240200-
...NORTHEAST COLORADO...

CITY           SKY/WX    TMP DP  RH WIND       PRES   REMARKS
GREELEY ARPT   MOSUNNY   88  48  25 SW15G21   30.21R
AKRON          PTSUNNY   86  60  41 S12       30.20S
BURLINGTON     PTSUNNY   84  62  47 S9        30.21R
WRAY             N/A     90  56  31 SE10      30.16R
STERLING       PTSUNNY   91  64  40 S12       30.13S
HOLYOKE        SUNNY     86  63  45 S9        30.16R
FORT MORGAN    PTSUNNY   86  53  31 SW7       30.20F
$$

COZ086-089-092>099-240200-
...SOUTHEAST COLORADO...

CITY           SKY/WX    TMP DP  RH WIND       PRES   REMARKS
PUEBLO         MOSUNNY   91  50  24 E12       30.18F
LA JUNTA       SUNNY     94  53  25 SE8       30.15S
LAMAR          SUNNY     91  62  37 SE18G26   30.12F
SPRINGFIELD      N/A     89  50  26 S15       30.19S
$$


USA.gov is the U.S. government's official web portal to all federal, state and local government web resources and services.